When you browse on this site, cookies collect data to enhance your experience and personalize the content and advertising you see.
Visit our Privacy Policy to learn more. By continuing to use the site, you agree to this use of cookies and data.
EN

Hourly Weather Orel

Today, 7 July, Tuesday

Time Temperature Precipitation Wind Pressure Humidity
00:00 +20°C° 0 mm 2 mps 739 mmHg 84%
01:00 +20°C° 0 mm 2 mps 739 mmHg 86%
02:00 +19°C° 0 mm 2 mps 739 mmHg 88%
03:00 +20°C° 0.4 mm 2 mps 739 mmHg 90%
04:00 +20°C° 0.4 mm 2 mps 738 mmHg 91%
05:00 +20°C° 0.4 mm 3 mps 738 mmHg 93%
06:00 +22°C° 0 mm 3 mps 738 mmHg 90%
07:00 +25°C° 0 mm 3 mps 738 mmHg 87%
08:00 +26°C° 0 mm 3 mps 738 mmHg 84%
09:00 +28°C° 0.3 mm 3 mps 737 mmHg 79%
10:00 +29°C° 0.3 mm 3 mps 737 mmHg 74%
11:00 +31°C° 0.3 mm 3 mps 737 mmHg 69%
12:00 +31°C° 0.3 mm 3 mps 736 mmHg 66%
13:00 +33°C° 0.3 mm 4 mps 736 mmHg 63%
14:00 +33°C° 0.3 mm 4 mps 736 mmHg 61%
15:00 +32°C° 0.6 mm 4 mps 736 mmHg 66%
16:00 +30°C° 0.6 mm 4 mps 735 mmHg 72%
17:00 +30°C° 0.6 mm 3 mps 734 mmHg 77%
18:00 +28°C° 0.3 mm 3 mps 735 mmHg 79%
19:00 +27°C° 0.3 mm 3 mps 735 mmHg 81%
20:00 +26°C° 0.3 mm 2 mps 735 mmHg 83%
21:00 +24°C° 1.5 mm 3 mps 735 mmHg 87%
22:00 +21°C° 1.5 mm 3 mps 734 mmHg 91%
23:00 +19°C° 1.5 mm 4 mps 734 mmHg 94%

Tomorrow, 8 July, Wednesday

Time Temperature Precipitation Wind Pressure Humidity
00:00 +19°C° 0.3 mm 3 mps 734 mmHg 94%
01:00 +19°C° 0.3 mm 2 mps 735 mmHg 94%
02:00 +20°C° 0.3 mm 1 mps 735 mmHg 94%
03:00 +19°C° 0.1 mm 2 mps 735 mmHg 94%
04:00 +19°C° 0.1 mm 3 mps 735 mmHg 94%
05:00 +19°C° 0.1 mm 4 mps 735 mmHg 94%
06:00 +19°C° 0.6 mm 4 mps 735 mmHg 94%
07:00 +20°C° 0.6 mm 4 mps 736 mmHg 93%
08:00 +20°C° 0.6 mm 5 mps 736 mmHg 93%
09:00 +20°C° 0 mm 5 mps 737 mmHg 91%
10:00 +20°C° 0 mm 5 mps 737 mmHg 89%
11:00 +20°C° 0 mm 5 mps 738 mmHg 87%
12:00 +20°C° 0.1 mm 5 mps 738 mmHg 86%
13:00 +20°C° 0.1 mm 5 mps 738 mmHg 85%
14:00 +20°C° 0.1 mm 5 mps 739 mmHg 84%
15:00 +19°C° 0 mm 5 mps 739 mmHg 85%
16:00 +17°C° 0 mm 6 mps 739 mmHg 85%
17:00 +17°C° 0 mm 6 mps 739 mmHg 86%
18:00 +16°C° 0 mm 5 mps 740 mmHg 88%
19:00 +15°C° 0 mm 4 mps 740 mmHg 90%
20:00 +15°C° 0 mm 4 mps 740 mmHg 91%
21:00 +14°C° 0 mm 4 mps 740 mmHg 91%
22:00 +14°C° 0 mm 4 mps 741 mmHg 91%
23:00 +14°C° 0 mm 4 mps 741 mmHg 90%

Day after tomorrow, 9 July, Thursday

Time Temperature Precipitation Wind Pressure Humidity
00:00 +13°C° 0 mm 4 mps 741 mmHg 91%
01:00 +13°C° 0 mm 3 mps 741 mmHg 91%
02:00 +13°C° 0 mm 3 mps 742 mmHg 92%
03:00 +13°C° 0 mm 3 mps 742 mmHg 92%
04:00 +13°C° 0 mm 4 mps 742 mmHg 92%
05:00 +13°C° 0 mm 4 mps 742 mmHg 92%
06:00 +14°C° 0 mm 4 mps 742 mmHg 87%
07:00 +16°C° 0 mm 5 mps 742 mmHg 82%
08:00 +17°C° 0 mm 5 mps 742 mmHg 77%
09:00 +19°C° 0 mm 5 mps 742 mmHg 73%
10:00 +20°C° 0 mm 5 mps 743 mmHg 69%
11:00 +21°C° 0 mm 6 mps 743 mmHg 64%
12:00 +21°C° 0.2 mm 6 mps 743 mmHg 67%
13:00 +20°C° 0.2 mm 6 mps 743 mmHg 69%
14:00 +20°C° 0.2 mm 7 mps 743 mmHg 71%
15:00 +20°C° 0.1 mm 6 mps 743 mmHg 72%
16:00 +19°C° 0.1 mm 6 mps 743 mmHg 73%
17:00 +19°C° 0.1 mm 5 mps 743 mmHg 75%
18:00 +17°C° 0.1 mm 5 mps 743 mmHg 80%
19:00 +15°C° 0.1 mm 4 mps 744 mmHg 86%
20:00 +14°C° 0.1 mm 3 mps 744 mmHg 91%
21:00 +13°C° 0 mm 3 mps 744 mmHg 92%
22:00 +13°C° 0 mm 3 mps 745 mmHg 94%
23:00 +12°C° 0 mm 3 mps 745 mmHg 95%

10 July, Friday

Time Temperature Precipitation Wind Pressure Humidity
00:00 +12°C° 0 mm 3 mps 745 mmHg 95%
01:00 +11°C° 0 mm 3 mps 746 mmHg 95%
02:00 +11°C° 0 mm 3 mps 746 mmHg 96%
03:00 +11°C° 0 mm 3 mps 746 mmHg 95%
04:00 +11°C° 0 mm 3 mps 747 mmHg 94%
05:00 +11°C° 0 mm 3 mps 747 mmHg 92%
06:00 +13°C° 0 mm 3 mps 747 mmHg 87%
07:00 +16°C° 0 mm 3 mps 747 mmHg 81%
08:00 +18°C° 0 mm 3 mps 748 mmHg 75%
09:00 +19°C° 0 mm 3 mps 748 mmHg 70%
10:00 +20°C° 0 mm 3 mps 748 mmHg 65%
11:00 +21°C° 0 mm 3 mps 748 mmHg 60%
12:00 +21°C° 0 mm 3 mps 748 mmHg 59%
13:00 +22°C° 0 mm 3 mps 748 mmHg 57%
14:00 +23°C° 0 mm 2 mps 748 mmHg 56%
15:00 +23°C° 0 mm 2 mps 748 mmHg 58%
16:00 +23°C° 0 mm 2 mps 748 mmHg 60%
17:00 +23°C° 0 mm 2 mps 748 mmHg 62%
18:00 +20°C° 0 mm 2 mps 748 mmHg 67%
19:00 +19°C° 0 mm 1 mps 748 mmHg 72%
20:00 +18°C° 0 mm 1 mps 748 mmHg 77%
21:00 +16°C° 0 mm 1 mps 749 mmHg 79%
22:00 +15°C° 0 mm 1 mps 749 mmHg 81%
23:00 +15°C° 0 mm 1 mps 749 mmHg 83%

11 July, Saturday

Time Temperature Precipitation Wind Pressure Humidity
00:00 +14°C° 0 mm 1 mps 749 mmHg 83%
01:00 +14°C° 0 mm 1 mps 749 mmHg 84%
02:00 +14°C° 0 mm 1 mps 749 mmHg 85%
03:00 +14°C° 0 mm 1 mps 749 mmHg 84%
04:00 +14°C° 0 mm 1 mps 749 mmHg 84%
05:00 +15°C° 0 mm 2 mps 749 mmHg 84%
06:00 +16°C° 0 mm 2 mps 749 mmHg 80%
07:00 +18°C° 0 mm 2 mps 749 mmHg 76%
08:00 +20°C° 0 mm 3 mps 749 mmHg 71%
09:00 +21°C° 0 mm 3 mps 749 mmHg 68%
10:00 +22°C° 0 mm 3 mps 749 mmHg 64%
11:00 +24°C° 0 mm 3 mps 749 mmHg 61%
12:00 +24°C° 0 mm 3 mps 749 mmHg 60%
13:00 +25°C° 0 mm 3 mps 749 mmHg 58%
14:00 +25°C° 0 mm 3 mps 748 mmHg 57%
15:00 +25°C° 0 mm 3 mps 748 mmHg 60%
16:00 +25°C° 0 mm 2 mps 748 mmHg 62%
17:00 +25°C° 0 mm 2 mps 747 mmHg 65%
18:00 +23°C° 0 mm 2 mps 747 mmHg 69%
19:00 +20°C° 0 mm 2 mps 747 mmHg 73%
20:00 +19°C° 0 mm 1 mps 747 mmHg 76%
21:00 +18°C° 0 mm 2 mps 747 mmHg 78%
22:00 +17°C° 0 mm 2 mps 747 mmHg 80%
23:00 +17°C° 0 mm 3 mps 747 mmHg 81%

12 July, Sunday

Time Temperature Precipitation Wind Pressure Humidity
00:00 +16°C° 0 mm 3 mps 746 mmHg 81%
01:00 +16°C° 0 mm 3 mps 746 mmHg 81%
02:00 +14°C° 0 mm 3 mps 746 mmHg 81%
03:00 +14°C° 0 mm 3 mps 746 mmHg 82%
04:00 +14°C° 0 mm 3 mps 745 mmHg 83%
05:00 +16°C° 0 mm 3 mps 745 mmHg 84%
06:00 +17°C° 0 mm 3 mps 745 mmHg 80%
07:00 +19°C° 0 mm 4 mps 745 mmHg 76%
08:00 +21°C° 0 mm 4 mps 745 mmHg 72%
09:00 +22°C° 0 mm 4 mps 744 mmHg 68%
10:00 +23°C° 0 mm 4 mps 744 mmHg 64%
11:00 +25°C° 0 mm 4 mps 744 mmHg 60%
12:00 +26°C° 0 mm 4 mps 744 mmHg 59%
13:00 +26°C° 0 mm 4 mps 743 mmHg 58%
14:00 +26°C° 0 mm 4 mps 743 mmHg 57%
15:00 +26°C° 0 mm 3 mps 743 mmHg 61%
16:00 +26°C° 0 mm 3 mps 742 mmHg 64%
17:00 +26°C° 0 mm 3 mps 742 mmHg 68%
18:00 +24°C° 0 mm 2 mps 742 mmHg 71%
19:00 +21°C° 0 mm 2 mps 742 mmHg 75%
20:00 +19°C° 0 mm 2 mps 742 mmHg 79%
21:00 +19°C° 0 mm 2 mps 742 mmHg 83%
22:00 +18°C° 0 mm 3 mps 742 mmHg 86%
23:00 +17°C° 0 mm 3 mps 742 mmHg 90%
Show more